Location: Lac Echo
(45.9375°N, 75.4580°W)
Time: 16:35:05
(UTC-05:00)

Amateur Radio Satellites - All Passes

Search period start: 23 January 2018 16:05
Search period end: 24 January 2018 16:05
Location: Lac Echo, 45.9375°N, 75.4580°W

Satellite Date Start Highest point End Downlink Frequencies (MHz)
Time Altitude Azimuth
DOVE 4 23 Jan 16:10:18 16:14:30 67° 258° (WSW) 16:18:39 437.250
AO-7 23 Jan 16:11:35 16:18:02 24° 268° (W) 16:24:32 .
XW-2C 23 Jan 16:15:49 16:18:37 20° 66° (ENE) 16:21:24 145.795 - 145.815
LilacSat-2 23 Jan 16:17:15 16:20:15 22° 67° (ENE) 16:23:15 437.200
ITUPSAT 1 23 Jan 16:26:28 16:31:05 46° 291° (WNW) 16:35:39 437.325
MOZHAYETS 4 23 Jan 16:29:48 16:33:28 24° 296° (WNW) 16:37:07
BEESAT 3 23 Jan 16:37:31 16:41:08 34° 45° (NE) 16:44:41 437.485
NO-84 23 Jan 16:39:13 16:42:19 87° 318° (NW) 16:45:16 435.350 FM
CUBESAT XI-V 23 Jan 16:40:02 16:44:36 62° 287° (WNW) 16:49:08 437.345
KAITUO 1B 23 Jan 16:41:39 16:44:48 26° 68° (ENE) 16:47:57 145.475/437.950
NUDT-PHONESAT 23 Jan 16:46:55 16:50:07 27° 69° (ENE) 16:53:20 437.300
XW-2F 23 Jan 16:48:14 16:51:48 40° 71° (ENE) 16:55:22 145.980 - 146.000
HO-68 23 Jan 16:55:17 17:01:40 37° 60° (ENE) 17:08:04 435.675
XW-2D 23 Jan 17:00:23 17:04:10 63° 74° (ENE) 17:07:56 145.860 - 145.880
CUBEBUG 2 23 Jan 17:03:37 17:06:20 16° 60° (ENE) 17:09:07 437.445
BEESAT 23 Jan 17:04:49 17:08:26 22° 298° (WNW) 17:12:02 436.000
PCSat 23 Jan 17:16:07 17:21:15 41° 48° (NE) 17:26:21 145.827
XW-2B 23 Jan 17:18:04 17:21:53 84° 254° (WSW) 17:25:44 145.730 - 145.750
AO-85 23 Jan 17:28:53 17:31:23 14° 28° (NNE) 17:33:57 145.980
BEESAT 2 23 Jan 17:32:51 17:36:35 35° 46° (NE) 17:40:15 435.950
CUTE-I 23 Jan 17:34:28 17:39:47 78° 257° (WSW) 17:45:08 437.470
KKS-1 23 Jan 17:35:54 17:40:23 76° 103° (ESE) 17:44:51 437.445
SEEDS 23 Jan 17:36:15 17:39:50 28° 68° (ENE) 17:43:25 437.485
STARS 23 Jan 17:43:14 17:47:21 36° 98° (E) 17:51:27 437.465
RS-15 23 Jan 17:48:57 17:59:46 47° 250° (WSW) 18:10:06 29.354- 29.394
XW-2C 23 Jan 17:49:01 17:52:33 35° 263° (W) 17:56:06 145.795 - 145.815
LilacSat-2 23 Jan 17:50:54 17:54:21 31° 264° (W) 17:57:50 437.200
CUTE 1.7 + AOD 2 23 Jan 17:54:08 17:58:22 69° 74° (ENE) 18:02:36 437.475
XW-2A 23 Jan 17:54:50 17:56:24 13° 64° (ENE) 17:58:00 145.665 - 145.685
BEESAT 3 23 Jan 18:15:13 18:18:33 27° 244° (WSW) 18:21:48 437.485
KAITUO 1B 23 Jan 18:15:35 18:18:43 25° 265° (W) 18:21:51 145.475/437.950
NO-84 23 Jan 18:17:35 18:19:48 19° 343° (NNW) 18:21:58 435.350 FM
NUDT-PHONESAT 23 Jan 18:20:56 18:23:56 23° 266° (W) 18:26:57 437.300
XW-2F 23 Jan 18:23:35 18:26:05 17° 268° (W) 18:28:33 145.980 - 146.000
UWE-3 23 Jan 18:36:40 18:41:07 72° 74° (ENE) 18:45:43 435.000/436.395/437.385
XW-2D 23 Jan 18:37:41 18:38:43 11° 271° (W) 18:39:45 145.860 - 145.880
CUBEBUG 2 23 Jan 18:37:59 18:42:23 65° 259° (W) 18:46:59 437.445
HO-68 23 Jan 18:42:17 18:49:12 51° 260° (W) 18:56:09 435.675
AAUSAT CUBESAT 2 23 Jan 18:43:06 18:47:10 60° 74° (ENE) 18:51:15 437.432
FO-29 23 Jan 18:45:56 18:47:14 11° 86° (E) 18:48:32 435.910
ZACube-1 23 Jan 18:53:20 18:57:44 57° 72° (ENE) 19:02:14 437.345
AO-73 23 Jan 18:58:08 19:02:31 56° 73° (ENE) 19:07:00 145.935
PCSat 23 Jan 18:59:40 19:04:35 36° 248° (WSW) 19:09:29 145.827
AO-85 23 Jan 19:08:07 19:12:52 50° 48° (NE) 19:17:56 145.980
BEESAT 2 23 Jan 19:10:46 19:14:11 27° 244° (WSW) 19:17:33 435.950
SEEDS 23 Jan 19:11:45 19:15:26 29° 265° (W) 19:19:08 437.485
STRAND 1 23 Jan 19:13:59 19:18:57 46° 99° (E) 19:23:53 437.568
KKS-1 23 Jan 19:14:05 19:16:21 14° 301° (WNW) 19:18:36 437.445
CUTE-I 23 Jan 19:19:41 19:20:41 10° 274° (W) 19:21:42 437.470
STARS 23 Jan 19:19:54 19:23:30 25° 295° (WNW) 19:27:07 437.465
XW-2A 23 Jan 19:25:25 19:28:42 46° 261° (W) 19:32:01 145.665 - 145.685
Oscar 11 23 Jan 19:27:59 19:32:19 73° 75° (ENE) 19:36:41 .
CUTE 1.7 + AOD 2 23 Jan 19:32:57 19:34:39 12° 272° (W) 19:36:22 437.475
nSIGHT-1 23 Jan 19:39:24 19:42:27 47° 145° (SE) 19:45:31 .
NO-84 23 Jan 19:56:11 19:57:48 14° 5° (N) 19:59:25 435.350 FM
ISS 23 Jan 20:05:24 20:08:36 56° 146° (SSE) 20:11:49 437.550
UWE-3 23 Jan 20:15:58 20:18:06 13° 273° (W) 20:20:17 435.000/436.395/437.385
AAUSAT CUBESAT 2 23 Jan 20:21:03 20:23:00 13° 271° (W) 20:24:57 437.432
Max Valier Satellite 23 Jan 20:24:34 20:28:00 35° 71° (ENE) 20:31:27 145.860
DELFI C3 23 Jan 20:24:54 20:28:43 55° 74° (ENE) 20:32:34 145.870
FO-29 23 Jan 20:27:58 20:33:11 88° 104° (ESE) 20:38:29 435.910
YUBILEINY 23 Jan 20:30:52 20:31:51 10° 68° (ENE) 20:32:51 435.215
ZACube-1 23 Jan 20:31:31 20:34:23 16° 271° (W) 20:37:17 437.345
EO-88 23 Jan 20:35:49 20:39:04 31° 70° (ENE) 20:42:20 145.990 - 145.960
AO-73 23 Jan 20:36:13 20:39:06 17° 270° (W) 20:42:02 145.935
AO-85 23 Jan 20:48:55 20:53:09 28° 245° (WSW) 20:57:34 145.980
STRAND 1 23 Jan 20:53:40 20:57:53 26° 297° (WNW) 21:02:06 437.568
TIGRISAT 23 Jan 21:06:06 21:10:03 26° 94° (E) 21:13:59 435.000
Oscar 11 23 Jan 21:07:15 21:08:57 12° 272° (W) 21:10:39 .
nSIGHT-1 23 Jan 21:15:40 21:18:40 38° 344° (NNW) 21:21:41 .
UNISAT 6 23 Jan 21:21:58 21:26:25 40° 97° (E) 21:30:49 437.425
NO-84 23 Jan 21:33:02 21:35:38 31° 26° (NNE) 21:38:14 435.350 FM
ISS 23 Jan 21:42:08 21:45:12 37° 345° (NNW) 21:48:17 437.550
LO-87 23 Jan 21:44:53 21:47:54 26° 69° (ENE) 21:50:58 145.935 - 145.965
Max Valier Satellite 23 Jan 21:59:19 22:01:56 18° 268° (W) 22:04:34 145.860
DELFI C3 23 Jan 22:02:01 22:03:48 13° 270° (W) 22:05:36 145.870
PRISM 23 Jan 22:09:49 22:13:13 25° 95° (E) 22:16:37 437.425
EO-88 23 Jan 22:10:03 22:12:45 19° 267° (W) 22:15:27 145.990 - 145.960
ESTCUBE 1 23 Jan 22:11:29 22:15:49 48° 71° (ENE) 22:20:11 437.505/2401.250
FO-29 23 Jan 22:15:02 22:17:35 14° 304° (NW) 22:20:09 435.910
YUBILEINY 23 Jan 22:18:01 22:26:31 55° 90° (E) 22:35:00 435.215
AIST 2D 23 Jan 22:40:15 22:43:11 25° 95° (E) 22:46:04 435.315
TIGRISAT 23 Jan 22:42:27 22:46:49 38° 291° (WNW) 22:51:08 435.000
nSIGHT-1 23 Jan 22:52:32 22:55:20 28° 4° (N) 22:58:09 .
NANOSAT C BR1 23 Jan 22:55:21 22:56:34 11° 88° (E) 22:57:48 145.865
UNISAT 6 23 Jan 22:59:02 23:02:55 26° 295° (WNW) 23:06:45 437.425
SPROUT 23 Jan 23:04:10 23:08:08 40° 70° (ENE) 23:12:09 437.525
NO-84 23 Jan 23:10:13 23:12:44 29° 224° (SW) 23:15:19 435.350 FM
QB50P2 23 Jan 23:11:13 23:14:31 21° 93° (E) 23:17:47 145.880/145.840
LO-87 23 Jan 23:18:26 23:21:16 22° 266° (W) 23:24:08 145.935 - 145.965
ISS 23 Jan 23:19:16 23:22:12 30° 5° (N) 23:25:09 437.550
VELOX 1 23 Jan 23:32:44 23:36:55 46° 70° (ENE) 23:41:07 145.980
DUCHIFAT 1 23 Jan 23:35:09 23:38:43 25° 95° (E) 23:42:15 145.980
EO-79 23 Jan 23:40:23 23:44:23 37° 98° (E) 23:48:22 145.935-145.965
DX 1 23 Jan 23:40:47 23:42:51 13° 59° (ENE) 23:44:55 434.975-435.025
PRISM 23 Jan 23:44:54 23:48:29 30° 292° (WNW) 23:52:04 437.425
O/OREOS (USA 219) 23 Jan 23:47:38 23:52:04 62° 111° (ESE) 23:56:31 437.305
ESTCUBE 1 23 Jan 23:49:37 23:52:52 19° 268° (W) 23:56:07 437.505/2401.250
AIST 2D 24 Jan 00:13:30 00:16:14 22° 292° (WNW) 00:18:55 435.315
YUBILEINY 24 Jan 00:15:39 00:23:40 38° 292° (WNW) 00:31:42 435.215
POLYITAN 1 24 Jan 00:16:07 00:20:27 90° 88° (E) 00:24:45 437.675
BUGSAT 1 24 Jan 00:23:30 00:26:41 20° 93° (E) 00:29:49 437.445
NANOSAT C BR1 24 Jan 00:28:31 00:32:47 76° 286° (WNW) 00:37:02 145.865
nSIGHT-1 24 Jan 00:28:45 00:31:54 61° 24° (NNE) 00:35:03 .
AO-91 24 Jan 00:37:12 00:40:53 23° 94° (E) 00:44:47 145.960
SPROUT 24 Jan 00:41:00 00:44:11 20° 267° (W) 00:47:24 437.525
QB50P2 24 Jan 00:46:26 00:50:26 39° 290° (WNW) 00:54:25 145.880/145.840
UKube-1 24 Jan 00:55:11 00:59:14 42° 70° (ENE) 01:03:19 .
ISS 24 Jan 00:55:46 00:59:03 70° 25° (NNE) 01:02:19 437.550
Oscar 19 24 Jan 00:57:43 01:02:14 30° 95° (E) 01:06:42 437.125/150
BEESAT 24 Jan 01:01:01 01:02:34 11° 55° (NE) 01:04:06 436.000
50 SAT 24 Jan 01:05:25 01:08:29 83° 78° (ENE) 01:11:36 437.505
VELOX 1 24 Jan 01:10:29 01:13:36 19° 268° (W) 01:16:43 145.980
DUCHIFAT 1 24 Jan 01:10:34 01:14:23 32° 292° (WNW) 01:18:11 145.980
Gurwin Techsat 1B 24 Jan 01:10:37 01:15:17 30° 95° (E) 01:19:55 435.225
DX 1 24 Jan 01:14:08 01:18:27 75° 257° (WSW) 01:22:48 434.975-435.025
EO-79 24 Jan 01:16:33 01:19:56 23° 295° (WNW) 01:23:18 145.935-145.965
O/OREOS (USA 219) 24 Jan 01:28:47 01:31:54 18° 310° (NW) 01:35:02 437.305
POLYITAN 1 24 Jan 01:54:16 01:55:32 11° 302° (WNW) 01:56:47 437.675
MOZHAYETS 4 24 Jan 01:55:56 02:00:26 54° 72° (ENE) 02:04:59
ITUPSAT 1 24 Jan 01:57:59 02:02:19 35° 67° (ENE) 02:06:40 437.325
BUGSAT 1 24 Jan 01:58:10 02:02:11 41° 290° (WNW) 02:06:10 437.445
nSIGHT-1 24 Jan 02:05:16 02:07:50 23° 221° (SW) 02:10:25 .
CUBESAT XI-V 24 Jan 02:09:20 02:12:52 22° 63° (ENE) 02:16:24 437.345
AO-91 24 Jan 02:13:05 02:17:25 46° 288° (WNW) 02:22:10 145.960
AO-7 24 Jan 02:16:02 02:22:13 22° 91° (E) 02:28:20 .
UKube-1 24 Jan 02:32:17 02:35:26 20° 267° (W) 02:38:37 .
ISS 24 Jan 02:32:46 02:35:15 20° 223° (SW) 02:37:43 437.550
BEESAT 24 Jan 02:34:45 02:39:30 78° 74° (ENE) 02:44:19 436.000
Oscar 19 24 Jan 02:36:50 02:41:37 39° 293° (WNW) 02:46:22 437.125/150
Gurwin Techsat 1B 24 Jan 02:50:22 02:55:19 40° 293° (WNW) 03:00:15 435.225
KKS-1 24 Jan 03:02:45 03:04:29 12° 58° (ENE) 03:06:13 437.445
FALCONSAT 3 24 Jan 03:07:01 03:08:39 13° 167° (SSE) 03:10:17 435.103
MOZHAYETS 4 24 Jan 03:34:45 03:37:55 18° 269° (W) 03:41:06
ITUPSAT 1 24 Jan 03:36:00 03:40:09 29° 264° (W) 03:44:22 437.325
CUBESAT XI-V 24 Jan 03:45:23 03:49:55 48° 261° (W) 03:54:28 437.345
ITAMSAT 1 24 Jan 03:50:13 03:55:23 60° 102° (ESE) 04:00:32 435.822/435.867
DOVE 4 24 Jan 04:06:01 04:09:42 25° 95° (E) 04:13:32 437.250
AO-7 24 Jan 04:07:32 04:15:58 87° 293° (WNW) 04:24:19 .
BEESAT 24 Jan 04:15:40 04:17:51 13° 271° (W) 04:20:03 436.000
SO-50 24 Jan 04:20:01 04:24:12 42° 119° (ESE) 04:28:28 436.795
KKS-1 24 Jan 04:35:56 04:40:22 87° 260° (W) 04:44:49 437.445
STARS 24 Jan 04:41:49 04:45:57 44° 70° (ENE) 04:50:07 437.465
FALCONSAT 3 24 Jan 04:44:37 04:46:56 16° 182° (S) 04:49:16 435.103
STRAND 1 24 Jan 04:56:32 04:58:52 13° 56° (NE) 05:01:14 437.568
M-CUBED/EXP-1 PRIME 24 Jan 05:08:37 05:11:53 50° 106° (ESE) 05:15:02 437.505
XW-2C 24 Jan 05:19:18 05:22:01 19° 93° (E) 05:24:43 145.795 - 145.815
LilacSat-2 24 Jan 05:21:36 05:24:34 22° 94° (E) 05:27:31 437.200
ITAMSAT 1 24 Jan 05:30:34 05:34:25 21° 300° (WNW) 05:38:16 435.822/435.867
DOVE 4 24 Jan 05:43:26 05:47:26 36° 290° (WNW) 05:51:39 437.250
KAITUO 1B 24 Jan 05:43:34 05:46:39 24° 95° (E) 05:49:42 145.475/437.950
NUDT-PHONESAT 24 Jan 05:47:44 05:50:51 25° 95° (E) 05:53:56 437.300
CUTE-I 24 Jan 05:49:08 05:53:59 34° 96° (E) 05:58:49 437.470
XW-2F 24 Jan 05:51:25 05:54:58 40° 98° (E) 05:58:28 145.980 - 146.000
SO-50 24 Jan 06:00:47 06:04:46 30° 319° (NW) 06:08:50 436.795
AO-7 24 Jan 06:01:22 06:07:40 25° 312° (NW) 06:13:57 .
RS-15 24 Jan 06:03:59 06:13:32 28° 101° (ESE) 06:22:57 29.354- 29.394
XW-2D 24 Jan 06:04:14 06:07:59 66° 101° (E) 06:11:41 145.860 - 145.880
HO-68 24 Jan 06:07:19 06:13:24 29° 94° (E) 06:19:27 435.675
STARS 24 Jan 06:19:18 06:22:29 20° 267° (W) 06:25:42 437.465
XW-2B 24 Jan 06:22:00 06:25:46 80° 284° (WNW) 06:29:29 145.730 - 145.750
FALCONSAT 3 24 Jan 06:24:35 06:25:11 10° 197° (SSW) 06:25:47 435.103
UWE-3 24 Jan 06:25:22 06:27:39 13° 88° (E) 06:29:56 435.000/436.395/437.385
CUBEBUG 2 24 Jan 06:26:32 06:30:25 24° 93° (E) 06:34:16 437.445
STRAND 1 24 Jan 06:32:09 06:37:15 83° 73° (ENE) 06:42:24 437.568
FO-29 24 Jan 06:41:52 06:48:10 52° 70° (ENE) 06:53:48 435.910
M-CUBED/EXP-1 PRIME 24 Jan 06:44:36 06:45:52 12° 304° (NW) 06:47:07 437.505
SEEDS 24 Jan 06:52:20 06:56:12 36° 97° (E) 07:00:03 437.485
XW-2C 24 Jan 06:52:53 06:56:18 33° 290° (WNW) 06:59:41 145.795 - 145.815
LilacSat-2 24 Jan 06:55:33 06:58:52 29° 291° (WNW) 07:02:08 437.200
CUTE 1.7 + AOD 2 24 Jan 07:12:04 07:16:17 82° 286° (WNW) 07:20:28 437.475
Oscar 11 24 Jan 07:14:56 07:16:17 11° 88° (E) 07:17:38 .
KAITUO 1B 24 Jan 07:17:30 07:20:33 25° 292° (WNW) 07:23:35 145.475/437.950
NUDT-PHONESAT 24 Jan 07:21:37 07:24:36 24° 292° (WNW) 07:27:33 437.300
XW-2F 24 Jan 07:26:19 07:28:45 17° 296° (WNW) 07:31:11 145.980 - 146.000
CUTE-I 24 Jan 07:29:12 07:34:00 36° 294° (WNW) 07:38:49 437.470
XW-2D 24 Jan 07:40:21 07:41:37 11° 299° (WNW) 07:42:51 145.860 - 145.880
HO-68 24 Jan 07:54:31 08:01:33 61° 293° (WNW) 08:08:34 435.675
AAUSAT CUBESAT 2 24 Jan 07:57:41 08:01:49 82° 105° (ESE) 08:05:55 437.432
UWE-3 24 Jan 07:59:57 08:04:38 73° 285° (WNW) 08:09:13 435.000/436.395/437.385
PCSat 24 Jan 08:01:33 08:05:27 21° 106° (ESE) 08:09:21 145.827
CUBEBUG 2 24 Jan 08:02:40 08:07:09 42° 290° (WNW) 08:11:36 437.445
BEESAT 3 24 Jan 08:06:17 08:09:31 24° 115° (ESE) 08:12:45 437.485
TIGRISAT 24 Jan 08:06:54 08:10:46 29° 66° (ENE) 08:14:45 435.000
RS-15 24 Jan 08:12:07 08:24:30 89° 124° (SE) 08:36:40 29.354- 29.394
STRAND 1 24 Jan 08:14:39 08:17:05 13° 272° (W) 08:19:31 437.568
ZACube-1 24 Jan 08:15:08 08:19:44 88° 108° (ESE) 08:24:12 437.345
O/OREOS (USA 219) 24 Jan 08:16:23 08:20:00 23° 53° (NE) 08:23:37 437.305
XW-2A 24 Jan 08:16:43 08:20:03 63° 285° (WNW) 08:23:20 145.665 - 145.685
AO-73 24 Jan 08:19:32 08:24:06 86° 100° (E) 08:28:32 145.935
UNISAT 6 24 Jan 08:22:46 08:27:01 45° 70° (ENE) 08:31:25 437.425
YUBILEINY 24 Jan 08:25:13 08:32:47 31° 65° (ENE) 08:40:15 435.215
FO-29 24 Jan 08:27:53 08:33:27 28° 265° (W) 08:38:31 435.910
SEEDS 24 Jan 08:28:27 08:31:41 22° 294° (WNW) 08:34:54 437.485
Oscar 11 24 Jan 08:48:37 08:52:58 76° 285° (WNW) 08:57:15 .
PRISM 24 Jan 09:01:13 09:04:34 25° 66° (ENE) 09:07:54 437.425
BEESAT 2 24 Jan 09:03:25 09:06:46 26° 115° (ESE) 09:10:08 435.950
AIST 2D 24 Jan 09:17:21 09:19:21 15° 65° (ENE) 09:21:21 435.315
Max Valier Satellite 24 Jan 09:25:20 09:28:44 33° 97° (E) 09:32:05 145.860
DELFI C3 24 Jan 09:33:26 09:37:21 66° 101° (E) 09:41:16 145.870
EO-88 24 Jan 09:35:01 09:38:11 28° 96° (E) 09:41:21 145.990 - 145.960
AAUSAT CUBESAT 2 24 Jan 09:35:27 09:36:37 11° 300° (WNW) 09:37:48 437.432
POLYITAN 1 24 Jan 09:38:26 09:39:36 11° 58° (ENE) 09:40:45 437.675
UWE-3 24 Jan 09:39:32 09:40:11 10° 304° (NW) 09:40:50 435.000/436.395/437.385
PCSat 24 Jan 09:42:56 09:48:19 67° 305° (NW) 09:53:45 145.827
BEESAT 3 24 Jan 09:43:06 09:46:51 38° 313° (NW) 09:50:37 437.485
TIGRISAT 24 Jan 09:43:23 09:47:23 32° 265° (W) 09:51:30 435.000
HO-68 24 Jan 09:44:17 09:47:55 15° 314° (NW) 09:51:31 435.675
NANOSAT C BR1 24 Jan 09:49:36 09:51:26 13° 59° (ENE) 09:53:15 145.865
ZACube-1 24 Jan 09:53:24 09:55:16 12° 302° (WNW) 09:57:08 437.345
O/OREOS (USA 219) 24 Jan 09:55:21 09:59:36 44° 252° (WSW) 10:03:51 437.305
AO-73 24 Jan 09:57:41 09:59:37 13° 301° (WNW) 10:01:31 145.935
UNISAT 6 24 Jan 10:00:36 10:03:58 21° 268° (W) 10:07:24 437.425
QB50P2 24 Jan 10:06:02 10:09:20 22° 65° (ENE) 10:12:39 145.880/145.840
YUBILEINY 24 Jan 10:21:39 10:30:16 66° 267° (W) 10:38:48 435.215
RS-15 24 Jan 10:27:14 10:38:37 41° 332° (NNW) 10:49:42 29.354- 29.394
DUCHIFAT 1 24 Jan 10:29:01 10:32:31 26° 66° (ENE) 10:36:02 145.980
EO-79 24 Jan 10:34:44 10:38:39 38° 69° (ENE) 10:42:36 145.935-145.965
PRISM 24 Jan 10:36:08 10:39:43 30° 263° (W) 10:43:19 437.425
BEESAT 2 24 Jan 10:40:34 10:44:19 37° 314° (NW) 10:48:08 435.950
LO-87 24 Jan 10:42:02 10:45:00 23° 94° (E) 10:47:56 145.935 - 145.965
AIST 2D 24 Jan 10:48:50 10:52:11 41° 262° (W) 10:55:32 435.315
Gurwin Techsat 1B 24 Jan 10:59:30 11:00:14 10° 52° (NE) 11:00:58 435.225
Max Valier Satellite 24 Jan 10:59:39 11:02:19 19° 294° (WNW) 11:04:58 145.860
AO-85 24 Jan 11:05:04 11:08:59 58° 121° (ESE) 11:13:12 145.980
SO-50 24 Jan 11:08:50 11:11:58 17° 32° (NNE) 11:15:08 436.795
EO-88 24 Jan 11:08:51 11:11:41 21° 293° (WNW) 11:14:29 145.990 - 145.960
DELFI C3 24 Jan 11:09:53 11:11:34 12° 299° (WNW) 11:13:15 145.870
POLYITAN 1 24 Jan 11:10:25 11:14:40 90° 86° (E) 11:18:58 437.675
BUGSAT 1 24 Jan 11:15:34 11:18:33 20° 64° (ENE) 11:21:35 437.445
NANOSAT C BR1 24 Jan 11:22:17 11:26:30 77° 256° (WSW) 11:30:47 145.865
PCSat 24 Jan 11:29:20 11:32:46 17° 327° (NNW) 11:36:13 145.827
AO-7 24 Jan 11:31:38 11:34:23 12° 34° (NE) 11:37:08 .
ESTCUBE 1 24 Jan 11:37:46 11:42:16 76° 103° (ESE) 11:46:44 437.505/2401.250
AO-91 24 Jan 11:38:13 11:40:33 17° 64° (ENE) 11:42:59 145.960
QB50P2 24 Jan 11:40:55 11:44:53 38° 262° (W) 11:48:54 145.880/145.840
DUCHIFAT 1 24 Jan 12:04:16 12:08:03 32° 264° (W) 12:11:52 145.980
EO-79 24 Jan 12:11:15 12:14:32 22° 267° (W) 12:17:50 145.935-145.965
LO-87 24 Jan 12:15:17 12:18:21 26° 291° (WNW) 12:21:24 145.935 - 145.965
Oscar 19 24 Jan 12:16:37 12:21:41 56° 71° (ENE) 12:26:47 437.125/150
YUBILEINY 24 Jan 12:21:38 12:25:13 13° 289° (WNW) 12:28:48 435.215
SPROUT 24 Jan 12:22:30 12:26:45 55° 100° (E) 12:30:58 437.525
Gurwin Techsat 1B 24 Jan 12:33:54 12:39:06 61° 71° (ENE) 12:44:21 435.225
RS-15 24 Jan 12:44:56 12:55:19 31° 6° (N) 13:05:17 29.354- 29.394
AO-85 24 Jan 12:46:31 12:49:46 22° 323° (NW) 12:53:15 145.980
SO-50 24 Jan 12:48:28 12:53:11 77° 53° (NE) 12:57:57 436.795
BUGSAT 1 24 Jan 12:49:42 12:53:36 42° 262° (W) 12:57:35 437.445
VELOX 1 24 Jan 12:56:04 13:00:28 67° 102° (ESE) 13:04:51 145.980
DX 1 24 Jan 13:00:53 13:03:29 15° 91° (E) 13:06:05 434.975-435.025
AO-91 24 Jan 13:13:44 13:16:48 31° 264° (W) 13:20:04 145.960
ESTCUBE 1 24 Jan 13:16:11 13:18:28 14° 301° (WNW) 13:20:45 437.505/2401.250
AO-7 24 Jan 13:17:16 13:24:53 41° 57° (ENE) 13:32:32 .
ITAMSAT 1 24 Jan 13:33:26 13:36:55 19° 58° (ENE) 13:40:24 435.822/435.867
50 SAT 24 Jan 13:48:45 13:51:43 39° 99° (E) 13:54:40 437.505
MOZHAYETS 4 24 Jan 13:51:24 13:52:04 10° 86° (E) 13:52:43
Oscar 19 24 Jan 13:57:27 14:01:20 21° 268° (W) 14:05:16 437.125/150
SPROUT 24 Jan 13:59:27 14:02:13 17° 298° (WNW) 14:04:57 437.525
UKube-1 24 Jan 14:15:08 14:19:23 54° 101° (E) 14:23:36 .
Gurwin Techsat 1B 24 Jan 14:15:39 14:19:28 20° 269° (W) 14:23:19 435.225
M-CUBED/EXP-1 PRIME 24 Jan 14:23:54 14:25:43 13° 56° (ENE) 14:27:29 437.505
SO-50 24 Jan 14:30:19 14:33:06 16° 250° (WSW) 14:35:53 436.795
BEESAT 24 Jan 14:33:28 14:36:28 16° 90° (E) 14:39:26 436.000
VELOX 1 24 Jan 14:33:53 14:36:24 15° 300° (WNW) 14:38:54 145.980
DX 1 24 Jan 14:35:45 14:40:01 56° 288° (WNW) 14:44:16 434.975-435.025
RS-15 24 Jan 14:59:41 15:11:17 53° 39° (NE) 15:22:14 29.354- 29.394
PCSat 24 Jan 15:04:02 15:05:00 10° 21° (NNE) 15:05:57 145.827
AO-7 24 Jan 15:09:18 15:17:25 54° 258° (WSW) 15:25:38 .
ITAMSAT 1 24 Jan 15:10:41 15:15:50 71° 257° (WSW) 15:21:01 435.822/435.867
DOVE 4 24 Jan 15:14:07 15:17:48 31° 69° (ENE) 15:21:29 437.250
50 SAT 24 Jan 15:21:49 15:23:02 12° 296° (WNW) 15:24:16 437.505
MOZHAYETS 4 24 Jan 15:25:14 15:29:53 90° 59° (ENE) 15:34:30
ITUPSAT 1 24 Jan 15:33:00 15:37:46 58° 101° (E) 15:42:30 437.325
CUTE-I 24 Jan 15:37:27 15:39:23 12° 54° (NE) 15:41:20 437.470
CUBESAT XI-V 24 Jan 15:39:20 15:43:32 34° 96° (E) 15:47:41 437.345
UKube-1 24 Jan 15:52:09 15:54:59 17° 299° (WNW) 15:57:49 .
M-CUBED/EXP-1 PRIME 24 Jan 15:55:27 15:59:40 76° 251° (WSW) 16:03:36 437.505
